Preview of NWS' New Version of Forecast
This preview is not operational and should not be used for support decisions.

Regional Weather Roundup (RWR)

Issued by National Weather Service (NWS)

                            
000
ASUS46 KSEW 190410
RWRWA 

WASHINGTON REGIONAL WEATHER ROUNDUP
NATIONAL WEATHER SERVICE SEATTLE WA
900 PM PDT THU APR 18 2019

NOTE:"FAIR" INDICATES FEW OR NO CLOUDS BELOW 12,000 FEET WITH NO 
SIGNIFICANT WEATHER AND/OR OBSTRUCTIONS TO VISIBILITY.

WAZ507-509-555>559-190500-
SEATTLE, TACOMA, EVERETT, AND VICINITY
  
CITY           SKY/WX    TMP DP  RH WIND       PRES   REMARKS
EVERETT        LGT RAIN  55  52  89 S5        30.08R                  
BOEING FIELD   LGT RAIN  57  53  86 SE9       30.08R                  
RENTON         CLOUDY    58  54  86 SE6       30.09R                  
SEATAC AIRPORT CLOUDY    56  52  86 S10       30.09R                  
JBLM-MCCHORD   CLOUDY    56  56 100 SW7       30.11R                  
PUYALLUP       CLOUDY    57  57 100 CALM      30.11R                  
BREMERTON      CLOUDY    53  52  96 SW10      30.07R                  
JBLM-FT LEWIS  CLOUDY    56  56 100 SW6       30.10R                  
TACOMA NARROWS CLOUDY    54  51  90 SW7       30.11R                  
$$
 
WAZ001-503-506-510-514-515-190500-
NORTH INTERIOR
  
CITY           SKY/WX    TMP DP  RH WIND       PRES   REMARKS
BELLINGHAM     LGT RAIN  55  52  89 SE7       30.05S FOG              
FRIDAY HARBOR  CLOUDY    52  50  93 CALM      30.06S FOG              
EASTSOUND      CLOUDY    54  54 100 S6        30.03F                  
PORT ANGELES   LGT RAIN  52  50  93 VRB3      30.06R                  
EDIZ HOOK      DRIZZLE   49  49  98 E3        30.05S                  
PORT TOWNSEND  DRIZZLE   52  50  93 CALM      30.06R                  
NAS WHIDBEY    LGT RAIN  54  49  83 CALM      30.09F                  
ARLINGTON      LGT RAIN  56  54  93 SE5       30.07R                  
BURLINGTON     MOCLDY    54  54 100 NE8       30.07R FOG              
$$
 
WAZ020-022-039-040-504-511-512-190500-
SOUTHWEST INTERIOR
  
CITY           SKY/WX    TMP DP  RH WIND       PRES   REMARKS
SHELTON        MOCLDY    53  50  89 SW12      30.07S                  
OLYMPIA        CLOUDY    57  52  83 S3        30.10R                  
CHEHALIS       CLOUDY    57  55  94 CALM      30.11R                  
KELSO          MOCLDY    60  54  80 NW5       30.11R                  
VANCOUVER      PTCLDY    66  51  58 N7        30.05R                  
SCAPPOOSE, OR  PTCLDY    64  51  62 N8        30.07R                  
PORTLAND, OR   MOCLDY    67  51  56 N7        30.06R                  
$$
 
WAZ021-516-517-190500-
WASHINGTON COAST
  
CITY           SKY/WX    TMP DP  RH WIND       PRES   REMARKS
FORKS          LGT RAIN  51  51 100 S7        30.06S FOG              
HOQUIAM        CLOUDY    52  52 100 CALM      30.11S FOG              
ASTORIA, OR    CLOUDY    54  51  90 CALM      30.12R                  
$$
 
WAZ019-023-024-040-567>569-190500-
CASCADE MOUNTAINS AND COLUMBIA GORGE
  
CITY           SKY/WX    TMP DP  RH WIND       PRES   REMARKS
STAMPEDE PASS  CLOUDY    48  45  89 CALM      30.12R                  
TROUTDALE, OR  PTCLDY    65  53  65 CALM      30.05R                  
HOOD RIVER, OR PTCLDY    68  48  49 MISG      30.05R                  
THE DALLES, OR PTCLDY    71  49  45 VRB5      30.01R                  
$$

WAZ026-027-041>044-520-521-190500-
EAST SLOPES
  
CITY           SKY/WX    TMP DP  RH WIND       PRES   REMARKS
OMAK           MOCLDY    64  47  53 S9        29.98R                  
WENATCHEE      MOCLDY    60  48  64 NW10      30.02R                  
ELLENSBURG     PTCLDY    58  47  66 W8        30.04R                  
YAKIMA         MOCLDY    70  47  43 W7        30.01R                  
SUNNYSIDE ARPT PTCLDY    68  51  54 S7        30.00R                  
YAKIMA TC      MOCLDY    64  48  56 CALM      30.01R                  
$$

WAZ028-034-035-190500-
COLUMBIA BASIN
  
CITY           SKY/WX    TMP DP  RH WIND       PRES   REMARKS
EPHRATA        PTCLDY    61  50  67 SW9       30.00R                  
MOSES LAKE     PTCLDY    67  48  50 S5        30.00S                  
PASCO          PTCLDY    72  49  44 SE5       30.00R                  
RICHLAND ARPT  PTCLDY    73  50  44 SE3       29.99                   
HERMISTON, OR  PTCLDY    69  51  52 W3        30.00S                  
$$

WAZ036>038-190500-
NORTHEAST WASHINGTON
  
CITY           SKY/WX    TMP DP  RH WIND       PRES   REMARKS
SPOKANE GEIGER MOCLDY    60  45  57 S6        30.06S                  
SPOKANE FELTS  MOCLDY    57  46  66 NE3       30.06R                  
FAIRCHILD AFB  MOCLDY    57  48  72 S5        30.06S                  
COEURDALENE,ID PTCLDY    58  46  64 S7        30.07S                  
DEER PARK      CLOUDY    56  46  69 N3        30.06S                  
$$

WAZ029>033-190500-
SOUTHEAST WASHINGTON
  
CITY           SKY/WX    TMP DP  RH WIND       PRES   REMARKS
PULLMAN        CLEAR     58  46  64 CALM      30.11S                  
LEWISTON, ID   CLEAR     62  48  60 S6        30.06S                  
WALLA WALLA    CLEAR     65  50  58 E7        30.03S                  
PENDLETON, OR  CLEAR     62  51  67 E10       30.03S                  
$$